This is the latest recevied weather packets stored in our database for station/object K2RMB. If no packets are shown the sender has not sent any weather packets the latest 10 day(s).
| Time | Temp. | Humidity | Pressure | Rain* | Wind** | Luminosity | Snow |
|---|---|---|---|---|---|---|---|
| 1777352629 | 11.11° C | 55% | 1023.4 hPa | 0 mm | - | 0 W/m² | - |
| 1777352326 | 11.11° C | 52% | 1023.4 hPa | 0 mm | - | 0 W/m² | - |
| 1777352023 | 11.11° C | 54% | 1023.7 hPa | 0 mm | - | 0 W/m² | - |
| 1777351721 | 11.67° C | 54% | 1023.4 hPa | 0 mm | - | 0 W/m² | - |
| 1777351418 | 12.22° C | 51% | 1023.7 hPa | 0 mm | - | 0 W/m² | - |
| 1777351117 | 12.22° C | 49% | 1023.7 hPa | 0 mm | - | 0 W/m² | - |
| 1777350816 | 12.22° C | 49% | 1024 hPa | 0 mm | - | 0 W/m² | - |
| 1777350511 | 12.22° C | 52% | 1024 hPa | 0 mm | - | 0 W/m² | - |
| 1777350208 | 12.22° C | 50% | 1024 hPa | 0 mm | - | 0 W/m² | - |
| 1777349905 | 12.78° C | 48% | 1024 hPa | 0 mm | - | 0 W/m² | - |
| 1777349602 | 12.78° C | 47% | 1024 hPa | 0 mm | - | 0 W/m² | - |
| 1777349300 | 13.33° C | 47% | 1024 hPa | 0 mm | - | 0 W/m² | - |
| 1777348998 | 13.33° C | 46% | 1024.4 hPa | 0 mm | - | 0 W/m² | - |
| 1777348695 | 13.89° C | 45% | 1024.4 hPa | 0 mm | - | 0 W/m² | - |
| 1777348392 | 13.89° C | 44% | 1024.4 hPa | 0 mm | - | 0 W/m² | - |
| 1777348090 | 13.89° C | 44% | 1024.4 hPa | 0 mm | - | 0 W/m² | - |
| 1777347789 | 13.89° C | 45% | 1024.4 hPa | 0 mm | - | 0 W/m² | - |
| 1777347486 | 13.33° C | 45% | 1024.4 hPa | 0 mm | - | 0 W/m² | - |
| 1777347186 | 13.33° C | 46% | 1024.4 hPa | 0 mm | - | 0 W/m² | - |
| 1777346882 | 13.89° C | 44% | 1024 hPa | 0 mm | - | 0 W/m² | - |
| 1777346579 | 13.89° C | 45% | 1024.4 hPa | 0 mm | - | 0 W/m² | - |
| 1777346276 | 13.89° C | 43% | 1024.4 hPa | 0 mm | - | 0 W/m² | - |
| 1777345973 | 13.89° C | 44% | 1024.4 hPa | 0 mm | - | 0 W/m² | - |
| 1777345671 | 13.89° C | 44% | 1024.4 hPa | 0 mm | - | 0 W/m² | - |
| 1777345366 | 13.89° C | 45% | 1024.4 hPa | 0 mm | - | 0 W/m² | - |
* Rain latest hour (hover to see other rain measurements)
** Current wind speed in m/s (hover to see current wind gust speed)